�������r�C�����j�^�v���󋵏��
Date,Time,5�C6���@���p�r�C��,����,����(m/s)
2022/02/18,00:00,4.1,���쐼,7.4
2022/02/18,00:10,4.1,���쐼,7.4
2022/02/18,00:20,4.0,���쐼,7.3
2022/02/18,00:30,3.9,���쐼,8.4
2022/02/18,00:40,4.0,�쐼,6.7
2022/02/18,00:50,4.2,�쐼,6.5
2022/02/18,01:00,4.0,�쐼,7.1
2022/02/18,01:10,4.0,�쐼,8.0
2022/02/18,01:20,4.2,�쐼,7.0
2022/02/18,01:30,3.9,��쐼,4.9
2022/02/18,01:40,4.3,��,5.9
2022/02/18,01:50,4.0,��,7.4
2022/02/18,02:00,3.9,��,7.7
2022/02/18,02:10,4.1,��,7.3
2022/02/18,02:20,3.9,��,7.7
2022/02/18,02:30,4.1,��쐼,7.9
2022/02/18,02:40,4.0,��,6.2
2022/02/18,02:50,4.0,��쐼,6.5
2022/02/18,03:00,4.2,��쐼,5.7
2022/02/18,03:10,4.1,��쐼,5.6
2022/02/18,03:20,4.0,��,4.2
2022/02/18,03:30,4.0,�쐼,4.5
2022/02/18,03:40,3.9,��쐼,4.0
2022/02/18,03:50,4.2,�쐼,6.1
2022/02/18,04:00,4.2,�쐼,5.5
2022/02/18,04:10,4.2,�쐼,5.6
2022/02/18,04:20,4.1,��쐼,5.3
2022/02/18,04:30,4.0,��쐼,6.2
2022/02/18,04:40,4.1,�쐼,7.0
2022/02/18,04:50,4.0,��쐼,6.7
2022/02/18,05:00,4.2,��쐼,6.9
2022/02/18,05:10,4.1,��쐼,6.5
2022/02/18,05:20,4.2,�쐼,4.7
2022/02/18,05:30,4.0,���쐼,2.9
2022/02/18,05:40,4.2,���쐼,5.1
2022/02/18,05:50,4.0,���쐼,4.1
2022/02/18,06:00,4.1,��,3.1
2022/02/18,06:10,3.9,�k��,4.1
2022/02/18,06:20,4.2,�k�k��,8.4
2022/02/18,06:30,3.9,�k�k��,8.6
2022/02/18,06:40,4.0,�k�k��,7.6
2022/02/18,06:50,4.1,�k�k��,7.3
2022/02/18,07:00,4.1,�k�k��,7.4
2022/02/18,07:10,4.1,�k��,7.8
2022/02/18,07:20,4.0,�k�k��,7.7
2022/02/18,07:30,4.2,�k�k��,7.2
2022/02/18,07:40,4.3,�k��,6.8
2022/02/18,07:50,4.1,�k��,6.5
2022/02/18,08:00,4.1,�k�k��,6.3
2022/02/18,08:10,4.1,�k��,7.4
2022/02/18,08:20,4.0,�k�k��,6.8
2022/02/18,08:30,4.1,�k�k��,7.5
2022/02/18,08:40,4.1,�k�k��,6.8
2022/02/18,08:50,4.0,�k�k��,8.4
2022/02/18,09:00,4.2,�k�k��,9.0
2022/02/18,09:10,4.2,�k�k��,10.2
2022/02/18,09:20,3.9,�k�k��,10.8
2022/02/18,09:30,4.1,�k�k��,8.9
2022/02/18,09:40,3.9,�k�k��,10.0
2022/02/18,09:50,4.0,�k�k��,8.9
2022/02/18,10:00,4.2,�k�k��,8.5
2022/02/18,10:10,4.1,�k�k��,7.7
2022/02/18,10:20,3.9,�k�k��,7.9
2022/02/18,10:30,4.2,�k�k��,6.9
2022/02/18,10:40,4.0,�k�k��,6.1
2022/02/18,10:50,4.1,�k�k��,6.0
2022/02/18,11:00,4.1,�k,6.5
2022/02/18,11:10,4.1,�k�k��,6.6
2022/02/18,11:20,4.0,�k�k��,7.1
2022/02/18,11:30,4.1,�k�k��,7.5
2022/02/18,11:40,4.1,�k,6.3
2022/02/18,11:50,4.0,�k�k��,5.9
2022/02/18,12:00,4.2,�k�k��,5.8
2022/02/18,12:10,4.0,�k�k��,5.4
2022/02/18,12:20,4.1,�k�k��,7.0
2022/02/18,12:30,4.0,�k�k��,6.8
2022/02/18,12:40,4.0,�k�k��,6.1
2022/02/18,12:50,4.2,�k�k��,5.6
2022/02/18,13:00,4.0,�k�k��,6.0
2022/02/18,13:10,4.0,�k�k��,6.1
2022/02/18,13:20,4.0,�k�k��,5.6
2022/02/18,13:30,4.1,�k�k��,5.8
2022/02/18,13:40,3.9,�k�k��,5.4
2022/02/18,13:50,4.1,�k�k��,5.3
2022/02/18,14:00,4.0,�k��,5.4
2022/02/18,14:10,4.0,�k�k��,6.0
2022/02/18,14:20,4.1,�k�k��,5.0
2022/02/18,14:30,4.0,�k,3.5
2022/02/18,14:40,4.0,���k��,1.5
2022/02/18,14:50,4.1,�k��,3.0
2022/02/18,15:00,4.2,�k��,2.3
2022/02/18,15:10,4.0,���쓌,2.6
2022/02/18,15:20,4.1,�쓌,2.9
2022/02/18,15:30,3.9,�쓌,2.6
2022/02/18,15:40,3.9,�쓌,3.4
2022/02/18,15:50,4.0,��,2.8
2022/02/18,16:00,3.9,��쓌,2.0
2022/02/18,16:10,4.0,���쓌,1.9
2022/02/18,16:20,4.0,���쓌,1.5
2022/02/18,16:30,4.1,���쓌,2.3
2022/02/18,16:40,4.0,�쓌,0.9
2022/02/18,16:50,4.1,�쓌,2.0
2022/02/18,17:00,4.2,���쓌,1.5
2022/02/18,17:10,4.0,��,0.8
2022/02/18,17:20,4.0,��,1.5
2022/02/18,17:30,4.0,��쐼,1.7
2022/02/18,17:40,4.0,��쐼,2.0
2022/02/18,17:50,3.8,��쐼,2.0
2022/02/18,18:00,4.0,��,1.7
2022/02/18,18:10,4.0,���쐼,1.2
2022/02/18,18:20,4.1,-,CALM
2022/02/18,18:30,3.9,��쓌,1.2
2022/02/18,18:40,4.1,��,1.5
2022/02/18,18:50,4.0,��쓌,0.6
2022/02/18,19:00,4.2,��쓌,1.5
2022/02/18,19:10,4.0,��쓌,1.9
2022/02/18,19:20,4.0,��,1.5
2022/02/18,19:30,4.0,�쐼,1.2
2022/02/18,19:40,4.0,�쐼,0.9
2022/02/18,19:50,4.2,��,0.9
2022/02/18,20:00,3.9,���쐼,1.2
2022/02/18,20:10,4.1,���쐼,2.0
2022/02/18,20:20,4.2,���쐼,1.9
2022/02/18,20:30,4.0,���쐼,1.2
2022/02/18,20:40,4.0,��,1.7
2022/02/18,20:50,4.0,��,2.0
2022/02/18,21:00,4.1,��,3.3
2022/02/18,21:10,3.8,��,4.1
2022/02/18,21:20,4.1,���k��,4.7
2022/02/18,21:30,4.0,���k��,4.0
2022/02/18,21:40,4.1,���k��,2.3
2022/02/18,21:50,4.1,���k��,2.0
2022/02/18,22:00,4.0,��,2.6
2022/02/18,22:10,4.2,��,3.3
2022/02/18,22:20,4.0,��,4.0
2022/02/18,22:30,4.1,��,3.8
2022/02/18,22:40,4.1,���k��,2.6
2022/02/18,22:50,4.0,���k��,3.1
2022/02/18,23:00,4.0,���k��,3.3
2022/02/18,23:10,4.1,�k��,2.9
2022/02/18,23:20,4.1,�k��,2.0
2022/02/18,23:30,4.0,�k��,2.0
2022/02/18,23:40,4.2,�k��,3.4
2022/02/18,23:50,3.9,�k��,4.3
